Fort Campbell, KY

4:11 PM CDT on May 28, 2017 (GMT -0500)
Campbell Army Air Field

Weather History for KHOP - December, 2012

Change the Weather History Date:

Thursday, December 20, 2012

  Actual Average Record
Temperature  
Mean Temperature 47 °F -  
Max Temperature 60 °F 43 °F 64 °F (2013)
Min Temperature 33 °F 25 °F 5 °F (1996)
Degree Days  
Heating Degree Days 18    
Moisture  
Dew Point 44 °F    
Average Humidity 83    
Maximum Humidity 100    
Minimum Humidity 50    
Precipitation  
Precipitation 1.58 in - - ()
Sea Level Pressure  
Sea Level Pressure 29.60 in    
Wind  
Wind Speed 20 mph (SSW)    
Max Wind Speed 41 mph    
Max Gust Speed 51 mph    
Visibility 8 miles    
Events Rain    
Averages and records for this station are not official NWS values.
T = Trace of Precipitation, MM = Missing Value Source: NWS Daily Summary

Daily Weather History Graph

Daily Weather History Graph

Search for Another Location

Airport or City:

Trip Planner

Search our weather history database for the weather conditions in past years. The results will help you decide how hot, cold, wet, or windy it might be!

Date:

Astronomy

Dec. 20, 2012 Rise Set
Actual Time 6:58 AM CST 4:37 PM CST
Civil Twilight 6:29 AM CST 5:06 PM CST
Nautical Twilight 5:56 AM CST 5:38 PM CST
Astronomical Twilight 5:25 AM CST 6:10 PM CST
Moon 11:47 AM CST (12/20) No Moon Set
Length of Visible Light 10h 36m
Length of Day
9h 39m
First Quarter, 55% of the Moon is Illuminated
Dec 20
First Quarter
Dec 28
Full
Jan 4
Last Quarter
Jan 11
New
Jan 18
First Quarter

Hourly Weather History & Observations

Time (CST) Temp. Windchill Dew Point Humidity Pressure Visibility Wind Dir Wind Speed Gust Speed Precip Events Conditions
12:55 AM 59.4 °F - 40.6 °F 50% 29.73 in 10.0 mi SSE 16.1 mph 23.0 mph N/A   Mostly Cloudy
1:55 AM 60.6 °F - 41.7 °F 50% 29.68 in 10.0 mi SSE 17.3 mph 23.0 mph N/A   Mostly Cloudy
2:55 AM 60.6 °F - 43.2 °F 53% 29.62 in 10.0 mi SSE 17.3 mph 27.6 mph N/A   Mostly Cloudy
3:15 AM 59.0 °F - 46.4 °F 63% 29.61 in 7.0 mi SSE 20.7 mph 33.4 mph N/A   Mostly Cloudy
3:16 AM 59.0 °F - 46.4 °F 63% 29.61 in 6.0 mi SSE 19.6 mph 33.4 mph N/A Rain Light Rain
3:26 AM 55.4 °F - 50.0 °F 82% 29.65 in 6.0 mi South 13.8 mph 28.8 mph N/A Rain Rain
3:38 AM 53.6 °F - 51.8 °F 94% 29.62 in 9.0 mi SSE 15.0 mph 21.9 mph N/A   Overcast
3:48 AM 53.6 °F - 51.8 °F 94% 29.61 in 10.0 mi SSE 16.1 mph 21.9 mph N/A Rain Light Rain
3:55 AM 53.8 °F - 51.8 °F 93% 29.60 in 10.0 mi SSE 17.3 mph 24.2 mph 0.16 in   Light Drizzle
3:59 AM 53.6 °F - 51.8 °F 94% 29.59 in 10.0 mi SSE 18.4 mph 27.6 mph N/A   Overcast
4:00 AM 53.6 °F - 51.8 °F 94% 29.59 in 10.0 mi SSE 16.1 mph 27.6 mph N/A Rain Light Rain
4:13 AM 53.6 °F - 51.8 °F 94% 29.57 in 9.0 mi SSE 19.6 mph 27.6 mph N/A   Overcast
4:16 AM 53.6 °F - 51.8 °F 94% 29.58 in 9.0 mi SSE 18.4 mph 27.6 mph N/A Rain Light Rain
4:18 AM 53.6 °F - 51.8 °F 94% 29.59 in 9.0 mi SSE 18.4 mph 27.6 mph N/A   Overcast
4:22 AM 53.6 °F - 53.6 °F 100% 29.58 in 8.0 mi SSE 21.9 mph 32.2 mph N/A Rain Light Rain
4:36 AM 53.6 °F - 53.6 °F 100% 29.57 in 10.0 mi SSE 18.4 mph 28.8 mph N/A   Light Drizzle
4:43 AM 53.6 °F - 53.6 °F 100% 29.56 in 10.0 mi SSE 19.6 mph 31.1 mph N/A   Overcast
4:44 AM 53.6 °F - 53.6 °F 100% 29.56 in 10.0 mi SSE 20.7 mph 31.1 mph N/A   Light Drizzle
4:49 AM 53.6 °F - 53.6 °F 100% 29.55 in 8.0 mi SSE 18.4 mph 31.1 mph N/A Rain Light Rain
4:55 AM 52.7 °F - 52.7 °F 100% 29.55 in 8.0 mi SSE 19.6 mph 27.6 mph 0.09 in Rain Light Rain
4:58 AM 53.6 °F - 53.6 °F 100% 29.55 in 9.0 mi SSE 16.1 mph 27.6 mph N/A Rain Light Rain
5:03 AM 53.6 °F - 51.8 °F 94% 29.54 in 10.0 mi SSE 18.4 mph 25.3 mph N/A   Overcast
5:55 AM 54.1 °F - 53.8 °F 99% 29.52 in 10.0 mi SSE 18.4 mph 25.3 mph 0.00 in   Overcast
5:59 AM 53.6 °F - 53.6 °F 100% 29.52 in 10.0 mi SSE 12.7 mph 23.0 mph N/A   Overcast
6:50 AM 55.4 °F - 55.4 °F 100% 29.49 in 9.0 mi SSE 13.8 mph 25.3 mph N/A Rain Light Rain
6:55 AM 55.8 °F - 55.8 °F 100% 29.51 in 8.0 mi South 11.5 mph 18.4 mph 0.01 in Rain Rain
7:00 AM 55.4 °F - 55.4 °F 100% 29.52 in 5.0 mi South 12.7 mph - N/A Rain Heavy Rain
7:07 AM 55.4 °F - 55.4 °F 100% 29.51 in 2.5 mi South 13.8 mph - N/A Rain Heavy Rain
7:09 AM 55.4 °F - 55.4 °F 100% 29.52 in 3.0 mi South 12.7 mph - N/A Rain Rain
7:21 AM 55.4 °F - 55.4 °F 100% 29.53 in 3.0 mi SW 16.1 mph - N/A Rain Rain
7:24 AM 55.4 °F - 55.4 °F 100% 29.53 in 2.5 mi SSW 12.7 mph - N/A Rain Rain
7:28 AM 57.2 °F - 57.2 °F 100% 29.53 in 3.0 mi SSW 12.7 mph - N/A Rain Rain
7:43 AM 57.2 °F - 57.2 °F 100% 29.51 in 2.5 mi SSW 18.4 mph - N/A Rain Rain
7:47 AM 57.2 °F - 57.2 °F 100% 29.52 in 1.8 mi SSW 17.3 mph - N/A Rain Rain
7:55 AM 55.8 °F - 55.8 °F 100% 29.52 in 1.5 mi SW 23.0 mph 28.8 mph 0.28 in Rain Rain
7:59 AM 55.4 °F - 55.4 °F 100% 29.51 in 2.0 mi SW 17.3 mph 28.8 mph N/A Rain Rain
8:11 AM 55.4 °F - 55.4 °F 100% 29.50 in 3.0 mi South 12.7 mph 25.3 mph N/A Rain Light Rain
8:20 AM 55.4 °F - 55.4 °F 100% 29.51 in 9.0 mi SSW 16.1 mph 23.0 mph N/A   Light Drizzle
8:25 AM 55.4 °F - 55.4 °F 100% 29.52 in 8.0 mi SSW 16.1 mph - N/A   Overcast
8:26 AM 55.4 °F - 53.6 °F 94% 29.52 in 8.0 mi South 16.1 mph - N/A Rain Light Rain
8:49 AM 53.6 °F - 53.6 °F 100% 29.51 in 10.0 mi South 15.0 mph 24.2 mph N/A   Overcast
8:52 AM 53.6 °F - 53.6 °F 100% 29.51 in 10.0 mi South 13.8 mph 23.0 mph N/A   Light Drizzle
8:55 AM 52.9 °F - 52.9 °F 100% 29.51 in 10.0 mi South 13.8 mph 23.0 mph 0.09 in   Light Drizzle
9:31 AM 51.8 °F - 51.8 °F 100% 29.50 in 10.0 mi SSW 19.6 mph 24.2 mph N/A   Light Drizzle
9:34 AM 51.8 °F - 51.8 °F 100% 29.50 in 10.0 mi SSW 18.4 mph 28.8 mph N/A   Overcast
9:55 AM 53.2 °F - 52.3 °F 97% 29.50 in 10.0 mi SSW 21.9 mph 25.3 mph 0.02 in   Mostly Cloudy
9:57 AM 53.6 °F - 51.8 °F 94% 29.50 in 10.0 mi SSW 20.7 mph 27.6 mph N/A   Mostly Cloudy
10:22 AM 53.6 °F - 50.0 °F 88% 29.50 in 10.0 mi SW 24.2 mph 31.1 mph N/A   Mostly Cloudy
10:33 AM 53.6 °F - 44.6 °F 72% 29.50 in 10.0 mi SW 35.7 mph 48.3 mph N/A   Mostly Cloudy
10:55 AM 51.6 °F - 41.2 °F 68% 29.51 in 10.0 mi WSW 33.4 mph 47.2 mph N/A   Mostly Cloudy
11:55 AM 48.4 °F - 38.5 °F 69% 29.52 in 10.0 mi WSW 32.2 mph 39.1 mph N/A   Overcast
12:17 PM 46.4 °F 36.9 °F 37.4 °F 71% 29.54 in 10.0 mi WSW 32.2 mph 50.6 mph N/A   Overcast
12:49 PM 44.6 °F 34.2 °F 32.0 °F 61% 29.57 in 10.0 mi WSW 33.4 mph 43.7 mph N/A   Overcast
12:55 PM 43.5 °F 31.8 °F 32.2 °F 64% 29.57 in 10.0 mi WSW 40.3 mph 50.6 mph 0.21 in   Overcast
1:55 PM 41.4 °F 30.0 °F 28.9 °F 61% 29.60 in 10.0 mi West 32.2 mph 42.6 mph 0.20 in   Overcast
1:58 PM 41.0 °F 30.2 °F 28.4 °F 61% 29.60 in 10.0 mi WSW 27.6 mph 42.6 mph N/A   Overcast
2:08 PM 41.0 °F 29.0 °F 28.4 °F 61% 29.61 in 10.0 mi WSW 35.7 mph 42.6 mph N/A   Overcast
2:38 PM 41.0 °F 30.2 °F 28.4 °F 61% 29.63 in 10.0 mi WSW 27.6 mph 49.5 mph N/A   Overcast
2:42 PM 41.0 °F 29.7 °F 28.4 °F 61% 29.63 in 10.0 mi WSW 31.1 mph 41.4 mph N/A   Overcast
2:44 PM 41.0 °F 29.0 °F 28.4 °F 61% 29.63 in 10.0 mi WSW 35.7 mph 47.2 mph N/A   Overcast
2:55 PM 39.6 °F 26.2 °F 27.5 °F 62% 29.65 in 10.0 mi WSW 41.4 mph 48.3 mph 0.27 in   Light Drizzle
2:59 PM 39.2 °F 26.3 °F 26.6 °F 61% 29.66 in 10.0 mi WSW 36.8 mph 48.3 mph N/A   Overcast
3:55 PM 38.3 °F 26.4 °F 26.4 °F 62% 29.70 in 10.0 mi West 28.8 mph 41.4 mph 0.14 in   Overcast
4:55 PM 38.3 °F 26.2 °F 26.4 °F 62% 29.74 in 10.0 mi West 29.9 mph 40.3 mph 0.01 in   Overcast
5:55 PM 38.5 °F 28.1 °F 27.1 °F 64% 29.79 in 10.0 mi West 21.9 mph 40.3 mph 0.03 in   Overcast
6:55 PM 38.1 °F 26.1 °F 26.8 °F 64% 29.81 in 10.0 mi West 28.8 mph 40.3 mph 0.06 in   Overcast
7:30 PM 37.4 °F 25.6 °F 26.6 °F 65% 29.83 in 10.0 mi West 26.5 mph 39.1 mph N/A   Overcast
7:45 PM 37.4 °F 25.9 °F 24.8 °F 60% 29.84 in 10.0 mi West 25.3 mph 34.5 mph N/A   Overcast
7:55 PM 36.7 °F 24.7 °F 25.3 °F 64% 29.85 in 10.0 mi West 26.5 mph 33.4 mph 0.00 in   Overcast
8:55 PM 36.0 °F 25.0 °F 23.5 °F 61% 29.88 in 10.0 mi West 20.7 mph 32.2 mph 0.01 in   Overcast
9:55 PM 35.4 °F 23.7 °F 22.8 °F 60% 29.90 in 10.0 mi West 23.0 mph 31.1 mph N/A   Overcast
10:55 PM 34.3 °F 23.9 °F 22.3 °F 61% 29.91 in 10.0 mi West 17.3 mph 26.5 mph N/A   Overcast
11:55 PM 33.4 °F 22.3 °F 20.3 °F 59% 29.94 in 10.0 mi West 18.4 mph 28.8 mph N/A   Overcast